Location: Archemont
(49.1579°N, 1.7598°E)
Time: 01:24:38
(UTC+00:00)

Envisat - Visible Passes

Search period start: 09 November 2024 00:00
Search period end: 19 November 2024 00:00
Orbit: 761 x 763 km, 98.3° (Epoch: 08 November)

Date Brightness Start Highest point End Pass type
(mag) Time Alt. Az. Time Alt. Az. Time Alt. Az.
09 Nov 5.8 02:45:23 10° NNE 02:45:38 11° NNE 02:45:38 11° NNE visible
09 Nov 5.1 04:24:56 10° N 04:25:46 14° NNW 04:25:46 14° NNW visible
10 Nov 5.3 03:46:54 10° N 03:47:40 14° N 03:47:40 14° N visible
11 Nov 5.6 03:09:13 10° NNE 03:09:34 12° NNE 03:09:34 12° NNE visible
11 Nov 5.2 04:49:26 10° NNW 04:49:42 11° NNW 04:49:42 11° NNW visible
12 Nov 5.3 04:11:05 10° N 04:11:36 13° N 04:11:36 13° N visible
13 Nov 5.5 03:33:11 10° N 03:33:30 12° N 03:33:30 12° N visible
14 Nov 5.3 04:35:26 10° N 04:35:33 11° NNW 04:35:33 11° NNW visible
15 Nov 5.5 03:57:16 10° N 03:57:27 11° N 03:57:27 11° N visible
